When you browse on this site, cookies collect data to enhance your experience and personalize the content and advertising you see.
Visit our Privacy Policy to learn more. By continuing to use the site, you agree to this use of cookies and data.

Stündliche Wetter Arakaka

Heute, 15 Juli, Mittwoch

Zeit Temperatur Niederschläge Wind Luftdruck Luftfeuchtigkeit
00:00 +22°C° 0 mm 0 m/S 754 mmHg 99%
01:00 +22°C° 0 mm 0 m/S 754 mmHg 99%
02:00 +22°C° 0 mm 0 m/S 753 mmHg 99%
03:00 +22°C° 0 mm 0 m/S 753 mmHg 99%
04:00 +22°C° 0 mm 0 m/S 753 mmHg 99%
05:00 +22°C° 0 mm 0 m/S 753 mmHg 99%
06:00 +23°C° 0 mm 0 m/S 753 mmHg 96%
07:00 +24°C° 0 mm 0 m/S 753 mmHg 94%
08:00 +25°C° 0 mm 0 m/S 754 mmHg 92%
09:00 +29°C° 0 mm 1 m/S 754 mmHg 79%
10:00 +31°C° 0 mm 1 m/S 753 mmHg 66%
11:00 +33°C° 0 mm 1 m/S 753 mmHg 53%
12:00 +33°C° 0.1 mm 1 m/S 752 mmHg 55%
13:00 +33°C° 0.1 mm 1 m/S 752 mmHg 57%
14:00 +34°C° 0.1 mm 2 m/S 751 mmHg 58%
15:00 +32°C° 0.8 mm 1 m/S 751 mmHg 68%
16:00 +30°C° 0.8 mm 1 m/S 751 mmHg 79%
17:00 +29°C° 0.8 mm 1 m/S 751 mmHg 89%
18:00 +28°C° 0.2 mm 1 m/S 751 mmHg 92%
19:00 +27°C° 0.2 mm 1 m/S 752 mmHg 95%
20:00 +26°C° 0.2 mm 1 m/S 752 mmHg 98%
21:00 +25°C° 0 mm 1 m/S 753 mmHg 98%
22:00 +25°C° 0 mm 1 m/S 753 mmHg 98%
23:00 +25°C° 0 mm 1 m/S 753 mmHg 99%

Morgen, 16 Juli, Donnerstag

Zeit Temperatur Niederschläge Wind Luftdruck Luftfeuchtigkeit
00:00 +24°C° 0 mm 1 m/S 753 mmHg 99%
01:00 +24°C° 0 mm 1 m/S 753 mmHg 99%
02:00 +22°C° 0 mm 0 m/S 752 mmHg 99%
03:00 +22°C° 0 mm 0 m/S 752 mmHg 99%
04:00 +22°C° 0 mm 0 m/S 752 mmHg 99%
05:00 +22°C° 0 mm 0 m/S 752 mmHg 99%
06:00 +23°C° 0 mm 0 m/S 753 mmHg 96%
07:00 +26°C° 0 mm 1 m/S 754 mmHg 94%
08:00 +27°C° 0 mm 1 m/S 754 mmHg 91%
09:00 +29°C° 0 mm 1 m/S 754 mmHg 79%
10:00 +31°C° 0 mm 1 m/S 754 mmHg 68%
11:00 +34°C° 0 mm 2 m/S 754 mmHg 56%
12:00 +32°C° 0.7 mm 2 m/S 753 mmHg 64%
13:00 +32°C° 0.7 mm 2 m/S 753 mmHg 73%
14:00 +31°C° 0.7 mm 2 m/S 752 mmHg 82%
15:00 +30°C° 0.7 mm 1 m/S 752 mmHg 82%
16:00 +30°C° 0.7 mm 1 m/S 751 mmHg 83%
17:00 +30°C° 0.7 mm 1 m/S 751 mmHg 84%
18:00 +28°C° 0.2 mm 1 m/S 752 mmHg 89%
19:00 +27°C° 0.2 mm 1 m/S 752 mmHg 93%
20:00 +26°C° 0.2 mm 1 m/S 753 mmHg 97%
21:00 +25°C° 0 mm 1 m/S 753 mmHg 97%
22:00 +25°C° 0 mm 1 m/S 753 mmHg 98%
23:00 +25°C° 0 mm 1 m/S 753 mmHg 98%

übermorgen, 17 Juli, Freitag

Zeit Temperatur Niederschläge Wind Luftdruck Luftfeuchtigkeit
00:00 +24°C° 0 mm 1 m/S 753 mmHg 98%
01:00 +22°C° 0 mm 0 m/S 753 mmHg 99%
02:00 +22°C° 0 mm 0 m/S 753 mmHg 99%
03:00 +22°C° 0 mm 0 m/S 753 mmHg 99%
04:00 +22°C° 0 mm 0 m/S 753 mmHg 99%
05:00 +21°C° 0 mm 0 m/S 753 mmHg 99%
06:00 +23°C° 0 mm 0 m/S 753 mmHg 96%
07:00 +24°C° 0 mm 0 m/S 753 mmHg 92%
08:00 +27°C° 0 mm 1 m/S 754 mmHg 89%
09:00 +29°C° 0.1 mm 1 m/S 754 mmHg 79%
10:00 +31°C° 0.1 mm 1 m/S 754 mmHg 70%
11:00 +32°C° 0.1 mm 2 m/S 754 mmHg 60%
12:00 +32°C° 0.5 mm 2 m/S 753 mmHg 63%
13:00 +32°C° 0.5 mm 1 m/S 752 mmHg 66%
14:00 +32°C° 0.5 mm 1 m/S 751 mmHg 68%
15:00 +31°C° 0.6 mm 1 m/S 751 mmHg 73%
16:00 +30°C° 0.6 mm 1 m/S 751 mmHg 78%
17:00 +29°C° 0.6 mm 1 m/S 751 mmHg 84%
18:00 +28°C° 0.1 mm 1 m/S 751 mmHg 88%
19:00 +27°C° 0.1 mm 1 m/S 752 mmHg 93%
20:00 +25°C° 0.1 mm 1 m/S 752 mmHg 97%
21:00 +25°C° 0 mm 1 m/S 753 mmHg 98%
22:00 +25°C° 0 mm 1 m/S 753 mmHg 98%
23:00 +25°C° 0 mm 1 m/S 753 mmHg 99%

18 Juli, Samstag

Zeit Temperatur Niederschläge Wind Luftdruck Luftfeuchtigkeit
00:00 +25°C° 0 mm 1 m/S 753 mmHg 99%
01:00 +22°C° 0 mm 0 m/S 753 mmHg 99%
02:00 +22°C° 0 mm 0 m/S 752 mmHg 99%
03:00 +22°C° 0 mm 0 m/S 752 mmHg 99%
04:00 +22°C° 0 mm 0 m/S 752 mmHg 99%
05:00 +22°C° 0 mm 0 m/S 752 mmHg 99%
06:00 +23°C° 0 mm 0 m/S 753 mmHg 96%
07:00 +24°C° 0 mm 0 m/S 753 mmHg 93%
08:00 +27°C° 0 mm 1 m/S 753 mmHg 90%
09:00 +29°C° 0 mm 1 m/S 753 mmHg 80%
10:00 +31°C° 0 mm 1 m/S 753 mmHg 69%
11:00 +34°C° 0 mm 2 m/S 753 mmHg 58%
12:00 +32°C° 0.4 mm 1 m/S 752 mmHg 63%
13:00 +32°C° 0.4 mm 1 m/S 751 mmHg 68%
14:00 +32°C° 0.4 mm 1 m/S 751 mmHg 72%
15:00 +31°C° 1 mm 1 m/S 751 mmHg 79%
16:00 +29°C° 1 mm 1 m/S 750 mmHg 85%
17:00 +28°C° 1 mm 1 m/S 750 mmHg 92%
18:00 +27°C° 0.1 mm 1 m/S 751 mmHg 94%
19:00 +26°C° 0.1 mm 1 m/S 751 mmHg 96%
20:00 +26°C° 0.1 mm 1 m/S 752 mmHg 98%
21:00 +25°C° 0 mm 1 m/S 752 mmHg 98%
22:00 +25°C° 0 mm 1 m/S 753 mmHg 98%
23:00 +25°C° 0 mm 1 m/S 753 mmHg 99%

19 Juli, Sonntag

Zeit Temperatur Niederschläge Wind Luftdruck Luftfeuchtigkeit
00:00 +22°C° 0 mm 0 m/S 752 mmHg 99%
01:00 +22°C° 0 mm 0 m/S 752 mmHg 99%
02:00 +22°C° 0 mm 0 m/S 752 mmHg 99%
03:00 +22°C° 0 mm 0 m/S 752 mmHg 99%
04:00 +22°C° 0 mm 0 m/S 752 mmHg 99%
05:00 +22°C° 0 mm 0 m/S 752 mmHg 99%
06:00 +23°C° 0 mm 0 m/S 752 mmHg 96%
07:00 +24°C° 0 mm 0 m/S 753 mmHg 94%
08:00 +27°C° 0 mm 1 m/S 753 mmHg 91%
09:00 +28°C° 0.4 mm 1 m/S 753 mmHg 87%
10:00 +29°C° 0.4 mm 1 m/S 753 mmHg 83%
11:00 +30°C° 0.4 mm 1 m/S 753 mmHg 80%
12:00 +30°C° 1.1 mm 1 m/S 752 mmHg 80%
13:00 +30°C° 1.1 mm 1 m/S 751 mmHg 80%
14:00 +31°C° 1.1 mm 1 m/S 751 mmHg 80%
15:00 +30°C° 1.2 mm 1 m/S 750 mmHg 85%
16:00 +29°C° 1.2 mm 1 m/S 750 mmHg 89%
17:00 +28°C° 1.2 mm 1 m/S 750 mmHg 94%
18:00 +27°C° 0.1 mm 1 m/S 751 mmHg 95%
19:00 +26°C° 0.1 mm 1 m/S 751 mmHg 97%
20:00 +25°C° 0.1 mm 1 m/S 752 mmHg 98%
21:00 +25°C° 0 mm 1 m/S 752 mmHg 98%
22:00 +25°C° 0 mm 1 m/S 752 mmHg 98%
23:00 +25°C° 0 mm 1 m/S 753 mmHg 98%

20 Juli, Montag

Zeit Temperatur Niederschläge Wind Luftdruck Luftfeuchtigkeit
00:00 +24°C° 0 mm 1 m/S 752 mmHg 99%
01:00 +22°C° 0 mm 0 m/S 752 mmHg 99%
02:00 +22°C° 0 mm 0 m/S 751 mmHg 99%
03:00 +22°C° 0 mm 0 m/S 751 mmHg 99%
04:00 +22°C° 0 mm 0 m/S 751 mmHg 99%
05:00 +22°C° 0 mm 0 m/S 751 mmHg 99%
06:00 +23°C° 0 mm 0 m/S 752 mmHg 96%
07:00 +24°C° 0 mm 0 m/S 752 mmHg 94%
08:00 +27°C° 0 mm 1 m/S 752 mmHg 91%
09:00 +28°C° 0.7 mm 1 m/S 752 mmHg 89%
10:00 +29°C° 0.7 mm 1 m/S 752 mmHg 86%
11:00 +30°C° 0.7 mm 1 m/S 752 mmHg 84%
12:00 +30°C° 1.6 mm 1 m/S 752 mmHg 85%
13:00 +30°C° 1.6 mm 1 m/S 751 mmHg 86%
14:00 +30°C° 1.6 mm 1 m/S 751 mmHg 88%
15:00 +29°C° 1.4 mm 1 m/S 750 mmHg 90%
16:00 +28°C° 1.4 mm 1 m/S 750 mmHg 92%
17:00 +28°C° 1.4 mm 1 m/S 750 mmHg 94%
18:00 +27°C° 0.1 mm 1 m/S 751 mmHg 95%
19:00 +26°C° 0.1 mm 1 m/S 751 mmHg 96%
20:00 +25°C° 0.1 mm 1 m/S 751 mmHg 97%
21:00 +25°C° 0 mm 1 m/S 752 mmHg 98%
22:00 +23°C° 0 mm 0 m/S 752 mmHg 98%
23:00 +22°C° 0 mm 0 m/S 752 mmHg 99%
Mehr zeigen